Change the Weather History Date:

Saturday, April 12, 2014

  Actual Average Record
Temperature  
Mean Temperature 74 °F 74 °F  
Max Temperature 78 °F 79 °F 83 °F (1961)
Min Temperature 69 °F 69 °F 60 °F (1957)
Degree Days  
Heating Degree Days 0 0  
Month to date heating degree days 0 0  
Since 1 July heating degree days 0 0  
Cooling Degree Days 9 9  
Month to date cooling degree days 108 107  
Year to date cooling degree days 695 741  
Growing Degree Days 24 (Base 50)    
Moisture  
Dew Point 63 °F    
Average Humidity 71    
Maximum Humidity 79    
Minimum Humidity 62    
Precipitation  
Precipitation T in 0.08 in 0.69 in (1965)
Month to date precipitation 0.24 1.11  
Year to date precipitation 12.57 12.63  
Snow  
Snow 0.00 in - - ()
Month to date snowfall 0.0  
Since 1 July snowfall 0.0  
Snow Depth 0.00 in    
Sea Level Pressure  
Sea Level Pressure 30.13 in    
Wind  
Wind Speed 18 mph (NE)    
Max Wind Speed 22 mph    
Max Gust Speed 26 mph    
Visibility 10 miles    
Events Rain    
T = Trace of Precipitation, MM = Missing Value Source: NWS Daily Summary

Daily Weather History Graph

Daily Weather History Graph

Search for Another Location

Airport or City:

Trip Planner

Search our weather history database for the weather conditions in past years. The results will help you decide how hot, cold, wet, or windy it might be!

Date:

Astronomy

Apr. 12, 2014 Rise Set
Actual Time 6:20 AM HST 6:56 PM HST
Civil Twilight 5:57 AM HST 7:19 PM HST
Nautical Twilight 5:30 AM HST 7:45 PM HST
Astronomical Twilight 5:03 AM HST 8:12 PM HST
Moon 5:00 PM HST (4/12) 4:35 AM HST (4/12)
Length of Visible Light 13h 21m
Length of Day
12h 36m
Waxing Gibbous, 94% of the Moon is Illuminated
Apr 12
Waxing Gibbous
Apr 14
Full
Apr 21
Last Quarter
Apr 28
New
May 6
First Quarter

Hourly Weather History & Observations

Time (HST) Temp. Dew Point Humidity Pressure Visibility Wind Dir Wind Speed Gust Speed Precip Events Conditions
12:53 AM 71.1 °F 61.0 °F 70% 30.12 in 10.0 mi NE 17.3 mph - N/A   Overcast
1:43 AM 71.6 °F 62.6 °F 73% 30.12 in 10.0 mi NE 15.0 mph - N/A   Mostly Cloudy
1:53 AM 71.1 °F 62.1 °F 73% 30.12 in 10.0 mi NE 17.3 mph - N/A   Overcast
2:15 AM 71.6 °F 60.8 °F 69% 30.11 in 10.0 mi NE 17.3 mph - N/A   Overcast
2:53 AM 70.0 °F 61.0 °F 73% 30.11 in 10.0 mi NE 17.3 mph - N/A   Partly Cloudy
3:53 AM 70.0 °F 60.1 °F 71% 30.10 in 10.0 mi NNE 16.1 mph - N/A   Mostly Cloudy
4:50 AM 71.6 °F 62.6 °F 73% 30.10 in 10.0 mi NE 19.6 mph - N/A   Overcast
4:53 AM 70.0 °F 62.1 °F 76% 30.09 in 10.0 mi NNE 17.3 mph - N/A   Overcast
5:00 AM 71.6 °F 62.6 °F 73% 30.10 in 10.0 mi NE 18.4 mph - N/A   Overcast
5:36 AM 71.6 °F 62.6 °F 73% 30.11 in 10.0 mi NE 17.3 mph - N/A   Mostly Cloudy
5:53 AM 71.1 °F 63.0 °F 75% 30.11 in 10.0 mi NNE 18.4 mph - N/A   Overcast
6:53 AM 71.1 °F 63.0 °F 75% 30.12 in 10.0 mi NE 16.1 mph - N/A   Partly Cloudy
7:08 AM 71.6 °F 62.6 °F 73% 30.13 in 10.0 mi NNE 16.1 mph - N/A   Mostly Cloudy
7:41 AM 69.8 °F 64.4 °F 83% 30.14 in 10.0 mi NE 18.4 mph 21.9 mph 0.00 in Rain Light Rain
7:53 AM 72.0 °F 64.9 °F 78% 30.13 in 10.0 mi NE 18.4 mph - 0.00 in   Overcast
8:53 AM 73.0 °F 62.1 °F 68% 30.15 in 10.0 mi NE 17.3 mph - N/A   Scattered Clouds
9:53 AM 73.9 °F 63.0 °F 68% 30.16 in 10.0 mi NE 15.0 mph - N/A   Mostly Cloudy
10:53 AM 77.0 °F 64.0 °F 64% 30.16 in 10.0 mi NE 16.1 mph - N/A   Mostly Cloudy
11:51 AM 75.2 °F 62.6 °F 65% 30.14 in 10.0 mi ENE 17.3 mph - N/A   Mostly Cloudy
11:53 AM 75.0 °F 63.0 °F 66% 30.14 in 10.0 mi ENE 17.3 mph - N/A   Mostly Cloudy
12:53 PM 78.1 °F 64.0 °F 62% 30.12 in 10.0 mi NE 19.6 mph - N/A   Mostly Cloudy
1:53 PM 77.0 °F 64.0 °F 64% 30.10 in 10.0 mi NE 19.6 mph - N/A   Scattered Clouds
2:53 PM 78.1 °F 64.9 °F 64% 30.09 in 10.0 mi NE 19.6 mph - N/A   Partly Cloudy
3:53 PM 75.0 °F 66.0 °F 73% 30.08 in 10.0 mi NE 19.6 mph - N/A   Mostly Cloudy
4:53 PM 75.0 °F 64.9 °F 71% 30.09 in 10.0 mi NE 16.1 mph - N/A   Scattered Clouds
5:53 PM 73.9 °F 64.9 °F 73% 30.09 in 10.0 mi NE 20.7 mph 28.8 mph N/A   Overcast
6:53 PM 69.1 °F 64.0 °F 84% 30.12 in 5.0 mi ENE 24.2 mph 31.1 mph 0.01 in Rain Light Rain
7:53 PM 71.1 °F 64.0 °F 78% 30.14 in 10.0 mi NE 27.6 mph 33.4 mph 0.00 in   Overcast
8:53 PM 71.1 °F 63.0 °F 75% 30.17 in 10.0 mi NE 26.5 mph 33.4 mph N/A   Overcast
9:53 PM 71.1 °F 62.1 °F 73% 30.19 in 10.0 mi NE 25.3 mph 31.1 mph N/A   Overcast
10:53 PM 71.1 °F 61.0 °F 70% 30.19 in 10.0 mi NE 21.9 mph 32.2 mph N/A   Overcast
11:53 PM 71.1 °F 61.0 °F 70% 30.18 in 10.0 mi NE 20.7 mph - N/A   Overcast